Location: Unspecified
(43.4680°N, 87.1740°E)
Time: 17:23:17
(UTC+00:00)

Okean O Rocket - Pass Details

Date: 17 January 2020
Orbit: 623 x 645 km, 98.2° (Epoch: 19 February)

Event Time Altitude Azimuth Distance (km) Brightness Sun altitude
Rises 22:57:02 0° 27° (NNE) 2,965 5.4 -29.2°
Reaches altitude 10° 22:59:44 10° 44° (NE) 2,048 4.7 -28.7°
Maximum altitude 23:03:08 21° 93° (E) 1,434 4.1 -28.1°
Drops below altitude 10° 23:06:31 10° 144° (SE) 2,029 4.6 -27.5°
Sets 23:09:09 0° 160° (SSE) 2,929 5.3 -27.0°
